Helicity
73 97 73 42 35 25 30 41 51 77 104 136 149 156 203 275 204 200 166 186 169 158 175 90 54 84 74 72 91 59 97 79 43 39 45 34 40 30 21 25 44 67 76 59 81
88 111 55 31 30 28 34 47 62 88 131 147 159 179 201 252 207 53 176 237 225 191 143 137 103 120 87 81 91 81 82 50 45 47 49 41 39 37 45 53 51 84 101 88 87
49 72 64 46 36 29 35 55 72 102 145 158 161 197 211 186 163 159 264 325 268 215 118 115 114 97 123 126 109 86 74 60 66 60 46 50 35 43 42 64 50 77 94 88 68
47 49 43 24 29 18 50 71 91 111 136 149 167 165 174 137 151 185 265 243 250 164 109 112 112 109 110 88 113 93 116 82 57 62 55 59 36 43 55 65 68 71 71 80 86
45 32 16 6 -1 34 71 94 103 115 150 163 161 159 119 121 159 232 290 232 114 104 96 108 99 80 78 75 92 92 77 91 73 77 72 54 42 51 64 97 114 110 124 107 84
23 7 20 23 18 51 86 101 115 122 141 150 137 94 98 147 156 249 251 191 204 160 163 136 93 80 92 122 99 85 95 95 103 81 60 60 54 84 92 103 126 95 85 94 108
0 18 22 37 59 83 100 102 110 112 140 149 128 113 116 116 165 234 209 185 173 128 130 157 134 114 84 104 84 82 103 94 121 91 67 65 72 67 95 79 29 76 111 140 134
71 58 46 55 81 95 108 126 114 122 151 127 95 101 102 158 175 199 202 147 165 142 108 122 96 88 100 70 112 99 92 81 84 113 72 73 58 69 79 41 89 116 136 118 80
66 81 84 90 85 103 115 128 118 136 151 118 100 101 135 146 147 208 155 165 182 105 113 84 85 86 104 93 98 128 72 86 66 93 75 93 53 64 86 93 113 133 97 71 83
72 80 74 66 63 76 117 138 175 95 109 106 91 101 118 155 174 173 137 123 96 99 102 110 98 90 113 106 47 58 67 64 48 79 65 57 60 78 103 116 120 99 93 88 82
66 72 79 63 48 68 66 67 97 142 195 113 149 89 153 177 130 159 128 108 92 97 94 105 106 77 57 77 56 53 42 33 45 62 21 46 67 92 117 139 132 123 101 73 65
54 51 46 39 31 24 23 51 61 65 103 129 122 98 130 125 120 228 111 81 94 83 107 105 71 66 78 98 89 98 68 62 42 54 22 46 46 70 138 136 117 89 70 51 35
70 63 53 64 32 24 52 67 74 65 78 154 134 134 136 122 103 181 110 91 95 106 118 71 67 73 78 96 82 71 53 47 26 50 39 36 28 134 139 133 100 85 69 34 37
72 74 65 58 46 62 63 61 60 38 72 169 129 96 93 81 96 93 71 57 86 52 69 74 76 79 78 74 58 55 60 53 49 41 34 64 44 69 90 92 100 93 80 49 36
56 58 34 41 32 39 56 40 32 33 58 92 104 75 80 69 74 108 69 78 82 82 81 77 95 104 102 87 86 67 85 62 54 60 61 91 135 64 114 63 81 87 60 35 35
48 59 16 33 35 45 51 40 29 66 41 72 83 93 81 111 89 82 77 80 53 83 122 92 91 99 96 111 104 87 92 115 106 98 118 123 123 59 65 80 106 61 49 44 31
12 19 17 17 14 29 22 28 55 23 35 51 80 93 68 94 82 94 83 90 68 75 84 90 88 86 102 110 104 112 121 82 91 116 90 87 106 25 64 71 61 44 44 36 31
-4 -26 -4 0 17 10 17 25 19 28 28 26 63 72 70 85 73 88 64 75 68 60 76 75 73 49 52 60 73 86 80 104 93 121 99 66 49 19 40 43 74 81 33 41 39
16 10 -5 13 2 -13 -3 8 -17 3 13 18 42 59 61 46 39 51 49 23 11 25 34 33 27 41 57 56 50 33 58 55 98 63 87 44 35 2 21 59 59 55 72 65 52
32 30 32 29 -3 -12 1 42 34 17 3 0 -3 -1 7 9 24 22 14 11 18 24 39 32 50 50 60 57 73 59 53 67 85 40 23 36 19 -24 27 33 76 88 127 95 53
41 47 48 12 -6 -4 15 33 25 5 4 3 12 -2 -2 -3 9 10 18 22 24 31 39 47 79 60 65 52 61 83 82 106 97 97 -39 -29 -24 6 6 71 101 103 109 31 7
45 33 33 12 23 35 33 33 15 9 3 5 2 -3 -2 2 -20 -27 -24 -15 23 34 44 47 65 32 50 78 74 82 68 92 1 -36 63 28 41 12 4 11 55 47 70 37 3
24 31 23 15 33 19 28 28 26 26 16 6 -4 -7 10 9 16 17 15 31 27 36 41 43 52 29 37 63 73 65 88 136 156 137 81 87 64 85 95 32 11 52 66 42 44
33 18 12 22 31 48 44 36 30 13 17 11 16 20 18 15 21 18 20 16 26 40 62 55 65 69 71 53 70 84 92 127 195 189 175 286 178 210 151 131 110 84 66 50 88
46 48 39 21 25 53 50 55 47 40 23 36 37 33 49 47 42 31 48 47 56 66 84 71 47 68 55 34 71 87 131 183 257 320 194 162 146 215 236 207 164 131 116 74 103
61 90 75 74 65 67 54 42 67 63 72 42 45 54 63 63 61 54 84 61 54 70 80 98 70 67 33 56 80 49 90 88 147 171 180 143 59 104 50 53 104 85 60 83 156
81 77 119 108 113 113 61 66 57 95 66 82 82 101 77 48 66 81 80 94 107 130 115 130 122 117 65 107 71 59 134 108 133 179 171 167 225 169 157 151 94 98 101 102 140
Wind_Speed
40 42 39 32 17 19 23 27 28 27 27 26 25 24 26 28 30 37 44 43 44 46 40 34 24 23 23 22 27 24 28 27 24 21 25 29 29 34 38 40 42 40 43 49 43
40 42 31 20 17 18 22 25 27 27 28 29 29 30 30 27 33 25 37 43 44 40 33 30 27 26 26 26 30 30 29 26 25 24 25 27 32 40 42 44 46 43 44 45 41
17 15 12 12 16 18 24 26 27 28 31 31 31 31 36 26 26 33 36 39 43 38 33 30 28 27 29 30 32 31 32 22 25 27 29 33 35 43 43 43 45 49 55 55 46
9 7 11 24 19 19 26 29 30 31 31 33 34 35 31 27 33 39 35 39 37 32 27 29 29 31 28 30 30 30 27 28 26 31 33 38 43 47 42 44 50 53 50 51 53
14 17 14 20 23 22 29 31 32 31 32 33 34 33 33 24 28 38 37 33 31 31 23 25 26 27 25 25 25 26 23 27 29 34 37 42 47 47 48 47 45 46 51 62 61
11 21 23 21 26 26 31 32 31 31 30 29 30 30 33 20 34 35 35 31 24 25 28 27 25 20 21 25 27 25 24 29 35 37 37 46 48 47 38 44 56 66 65 65 63
15 12 23 25 29 30 31 31 31 30 29 28 24 22 15 26 30 32 27 23 26 24 26 26 25 27 25 23 26 24 31 33 41 47 43 51 46 38 38 62 75 65 59 54 56
10 18 23 28 30 31 30 31 31 29 30 29 26 25 25 27 29 24 25 22 22 21 22 22 19 20 28 23 31 35 35 42 44 47 43 47 50 35 50 69 59 52 46 51 56
23 22 24 28 29 30 32 30 29 30 29 27 27 26 26 29 23 26 24 25 27 23 22 22 24 26 32 30 36 41 43 46 48 43 50 46 52 41 67 57 46 43 48 52 55
23 21 23 25 28 30 31 28 21 25 26 25 22 27 25 28 30 29 28 26 26 29 27 28 30 31 35 36 47 37 38 42 45 49 55 59 57 60 58 41 36 41 49 51 53
19 20 21 22 30 28 29 32 31 26 8 21 28 25 28 32 28 27 30 31 28 26 32 33 30 34 34 36 35 37 41 47 49 50 61 50 67 63 48 32 36 43 47 49 49
16 17 22 22 24 25 25 31 31 32 14 14 19 22 25 29 28 28 30 28 29 30 34 34 34 33 35 37 37 42 49 53 53 48 63 65 77 53 32 31 35 38 41 44 50
17 19 22 29 28 19 24 28 27 29 23 19 19 22 27 25 25 31 30 28 27 31 33 33 31 34 35 40 44 46 51 53 56 67 51 64 51 35 30 30 31 33 36 42 51
14 18 21 31 31 32 29 26 27 27 26 27 28 26 29 29 26 30 30 29 30 27 30 32 35 35 38 42 44 51 44 49 57 58 53 50 58 32 24 22 27 30 40 49 54
13 17 15 30 44 32 32 28 28 30 30 33 31 33 29 25 32 33 33 31 30 32 35 38 38 41 43 42 43 45 47 48 46 50 53 43 45 37 25 18 22 34 42 49 52
15 17 31 26 26 30 30 30 30 30 30 31 33 32 28 28 30 36 31 30 27 32 35 34 36 39 39 40 40 42 45 47 45 44 53 41 39 41 25 22 25 35 39 51 56
21 14 23 28 34 30 29 31 31 28 31 29 30 30 26 31 31 33 32 33 34 37 38 38 39 39 39 41 40 41 43 55 53 47 49 38 40 38 29 29 34 36 41 52 55
25 31 30 29 28 30 29 30 35 34 31 30 29 27 27 33 33 34 32 33 35 34 35 40 45 36 39 38 39 42 40 44 55 52 52 44 44 40 37 40 35 35 44 52 51
30 30 31 26 28 31 28 18 26 28 26 21 25 26 29 31 31 31 33 32 32 32 33 35 37 33 36 37 37 36 38 33 42 46 53 43 42 55 44 36 35 39 45 48 51
32 32 29 24 28 31 34 37 39 39 6 21 24 26 24 27 29 29 30 27 28 29 31 30 40 33 30 28 34 37 27 39 40 48 52 45 55 58 37 30 32 35 42 51 57
32 35 28 26 31 28 36 36 38 39 38 38 37 20 27 28 28 29 28 29 27 27 31 29 32 28 30 17 17 25 35 35 37 39 51 55 52 41 52 23 22 30 41 60 67
36 35 27 31 34 37 39 39 38 38 34 33 34 35 35 33 32 35 38 38 24 27 36 35 31 12 16 29 23 26 33 24 44 53 50 56 68 45 49 25 27 38 53 66 68
38 35 31 34 35 39 37 37 34 34 32 30 28 25 28 27 28 30 31 34 28 32 31 28 28 23 25 27 31 22 22 24 34 44 58 60 57 53 50 39 38 51 62 72 61
35 29 34 39 36 34 32 30 29 28 28 27 26 26 26 27 27 28 28 30 29 30 30 33 31 23 24 35 36 34 31 21 28 44 47 41 53 62 62 60 61 60 61 64 56
42 37 35 30 32 29 29 26 25 24 23 21 23 18 22 26 29 30 29 31 31 28 30 33 42 40 39 37 41 38 39 34 27 38 54 69 67 72 68 65 60 60 53 55 50
44 39 39 37 34 28 26 18 17 21 19 20 21 21 16 26 24 27 26 30 33 29 29 33 46 50 60 49 44 53 46 34 32 36 43 44 52 42 28 48 48 40 45 45 43
40 40 39 39 36 33 31 24 15 18 18 21 15 24 23 21 28 35 28 36 34 31 28 36 41 49 53 51 63 67 33 33 39 36 32 40 40 50 55 52 48 46 40 39 39
Wind_Direction
213 211 215 229 244 257 251 241 240 236 232 231 229 241 255 258 254 244 241 262 261 272 278 272 289 291 296 304 308 311 298 296 311 322 327 336 336 330 324 324 327 334 334 331 345
208 210 216 227 250 262 248 240 233 229 226 227 228 230 235 258 234 242 256 268 274 282 274 273 278 292 292 299 303 298 297 302 313 324 330 335 336 323 324 324 321 328 338 342 345
207 192 208 238 252 258 238 229 225 222 224 227 232 238 240 251 242 252 267 276 276 274 271 281 282 288 289 294 300 302 296 310 318 322 327 326 331 320 326 327 325 322 323 330 337
137 152 221 213 239 249 225 220 218 219 222 227 232 236 238 248 233 232 248 249 264 269 272 276 278 281 290 292 298 299 308 306 318 320 321 319 320 318 326 325 326 327 331 333 332
175 195 223 232 230 228 217 214 216 219 223 231 236 240 229 249 241 242 252 253 247 246 271 276 279 281 287 300 305 307 314 315 317 316 322 318 314 317 322 327 339 341 337 331 330
200 201 209 227 215 213 209 211 214 217 227 235 241 235 228 240 244 252 256 256 273 268 260 266 272 284 297 294 303 311 314 313 315 319 325 320 317 320 331 333 328 326 326 329 333
208 237 206 203 199 203 205 207 211 216 225 233 241 233 235 240 256 264 267 272 270 271 256 263 275 276 282 301 307 322 308 310 308 302 312 318 319 328 334 321 315 327 334 342 345
213 192 189 188 193 195 199 204 209 217 227 233 237 236 233 253 256 277 272 269 290 287 280 291 312 306 293 309 305 301 306 301 305 311 320 322 316 333 330 322 331 341 350 350 349
170 177 182 186 189 192 195 202 210 220 225 230 231 231 232 255 256 270 279 266 275 280 300 307 304 300 294 305 303 302 299 301 306 320 316 323 316 330 323 330 339 349 350 350 351
169 178 180 186 189 187 191 198 214 222 229 227 237 225 241 243 252 265 272 278 278 274 285 295 296 294 299 299 289 308 312 311 312 313 315 313 314 320 328 338 348 349 348 351 356
178 185 192 197 187 193 195 196 203 209 238 217 219 227 233 246 255 273 275 270 280 295 281 293 298 295 304 307 310 311 310 309 311 316 313 319 313 316 326 341 343 345 349 352 360
193 206 199 202 201 208 214 200 205 204 207 242 234 237 243 251 255 281 284 281 286 283 288 293 295 304 311 314 314 312 308 308 312 320 315 312 303 322 330 334 340 345 350 356 350
188 200 210 199 209 225 201 193 209 213 221 244 259 255 253 273 271 275 287 285 295 294 298 297 304 309 312 312 309 310 308 309 309 309 321 315 320 328 330 333 342 349 353 350 346
206 204 208 195 193 194 201 224 234 237 231 246 254 268 267 268 282 295 301 302 302 306 308 312 308 310 311 311 312 307 317 316 314 317 315 329 316 328 328 333 344 348 341 330 334
223 220 232 200 167 198 213 247 251 237 241 260 261 265 283 292 279 297 309 312 307 308 308 306 311 312 312 314 318 314 318 318 319 318 318 324 319 330 329 323 331 333 326 325 341
227 243 199 210 218 212 227 237 235 246 261 259 256 267 282 295 297 290 310 323 327 319 323 318 322 319 317 318 319 320 319 321 322 322 311 323 321 327 332 324 329 320 325 323 331
154 209 218 216 199 228 237 233 251 272 268 277 274 281 295 292 298 302 307 312 313 312 313 320 319 322 322 315 317 318 320 310 311 313 312 327 322 320 327 328 314 318 324 322 334
142 138 148 173 213 230 247 245 236 257 271 272 279 291 302 296 303 304 309 313 318 321 322 316 315 328 328 322 316 315 314 310 306 311 314 321 314 325 324 299 314 328 325 327 339
131 137 142 160 167 175 208 294 312 278 291 301 298 299 298 299 307 311 311 314 319 326 324 327 328 339 337 331 323 318 313 321 316 317 311 315 320 303 299 305 320 325 332 337 341
126 129 139 158 153 161 153 142 145 154 143 316 312 308 314 311 314 317 318 328 330 335 342 339 329 343 357 7 342 317 326 316 320 314 311 314 297 276 308 319 319 332 338 338 339
119 117 130 143 135 158 131 142 152 160 161 155 164 191 293 314 319 323 327 330 336 341 344 354 347 1 354 24 25 353 326 324 323 314 275 267 273 315 310 322 328 337 338 336 334
97 103 123 117 117 113 113 119 132 137 170 188 190 192 164 145 164 201 232 271 360 352 330 335 353 54 35 358 8 352 331 346 275 268 290 290 287 324 321 328 324 325 327 329 332
62 79 97 84 86 74 92 91 103 99 110 98 96 37 340 353 352 327 329 319 337 337 349 357 3 11 11 6 347 1 352 340 329 316 296 296 308 324 326 324 319 319 321 324 327
48 69 55 36 53 59 67 72 70 78 74 66 45 35 17 5 0 356 355 348 349 348 350 350 351 357 351 345 344 339 338 336 324 318 317 311 316 314 318 318 317 317 320 325 328
357 10 18 32 27 33 33 44 40 41 40 48 24 34 12 357 348 341 347 347 347 354 350 345 333 335 330 330 326 324 323 321 309 311 312 313 315 316 321 321 322 323 324 326 331
336 347 346 352 357 8 13 28 30 20 28 14 3 3 4 343 345 341 344 339 338 342 342 338 325 326 317 327 328 319 320 321 312 309 309 310 315 322 316 336 336 338 334 332 333
347 340 335 335 338 344 345 350 1 2 358 351 0 346 339 336 332 330 333 330 330 331 331 329 327 325 319 327 319 316 322 329 329 332 324 326 330 333 333 333 335 333 334 334 334